Regional Weather Roundup
Issued by NWS Boston, MA

Home | Current Version | Previous Version | Text Only | Print | Product List | Glossary On
Versions: 1 2 3 4 5 6 7 8 9 10 11 12 13 14 15 16 17 18 19 20 21 22 23 24 25 26 27 28 29 30 31 32 33 34 35 36 37 38 39 40 41 42 43 44 45 46 47 48
000
ASUS41 KBOX 080510
RWRBOX

REGIONAL WEATHER ROUNDUP
NATIONAL WEATHER SERVICE TAUNTON MA
100 AM EDT WED JUL 08 2015

NOTE:  "FAIR" INDICATES FEW OR NO CLOUDS BELOW 12,000 FEET WITH NO
SIGNIFICANT WEATHER AND/OR OBSTRUCTIONS TO VISIBILITY.  THE FOLLOWING
OBSERVATION LOCATIONS DO NOT REPORT PRESENT WEATHER...PROVINCETOWN...
SMITHFIELD...BLOCK ISLAND...KEENE...AND OXFORD.

MAZALL-080600-
EASTERN MASSACHUSETTS

CITY           SKY/WX    TMP DP  RH WIND       PRES   REMARKS
BOSTON         MOCLDY    75  71  87 SW10      29.92S
BEVERLY        CLEAR     76  69  79 SW9       29.90F
LAWRENCE       CLEAR     75  70  84 SW6       29.92F
BEDFORD        CLEAR     73  70  90 SW7       29.90F
BLUE HILL        N/A     72  70  93 S14       29.93F
NORWOOD        CLEAR     75  71  87 S6        29.92F
MARSHFIELD     PTCLDY    75  72  88 SW8G18    29.94F
PLYMOUTH       MOCLDY    73  71  93 SW10      29.95F
TAUNTON        CLOUDY    75  70  84 SW8       29.94F
NEW BEDFORD    CLOUDY    73  71  93 SW12      29.95F
$$

MAZALL-080600-
CAPE COD AND THE ISLANDS

CITY           SKY/WX    TMP DP  RH WIND       PRES   REMARKS
FALMOUTH       CLOUDY    73  72  94 SW16G25   29.97F
HYANNIS        CLOUDY    74  71  91 SW16      29.96S
CHATHAM        CLOUDY    70  70 100 SW8G17    29.98F FOG
PROVINCETOWN   CLOUDY    70  66  88 S15G21    29.95F
NANTUCKET      FOG       69  67  93 S10       29.99F VSB 3/4
MARTHAS VNYRD  CLOUDY    72  70  93 SW10      29.98F
$$

MAZALL-080600-
CENTRAL AND WESTERN MASSACHUSETTS

CITY           SKY/WX    TMP DP  RH WIND       PRES   REMARKS
WORCESTER      CLEAR     73  67  81 SW14      29.95F
FITCHBURG      PTCLDY    75  68  78 W10       29.92F
ORANGE         PTCLDY    70  68  93 CALM      29.93F
SPRINGFIELD    CLEAR     71  69  93 S7        29.92F
WESTFIELD      CLEAR     70  68  93 S7        29.93F
NORTH ADAMS    PTCLDY    68  66  93 CALM      29.92F FOG
PITTSFIELD     CLEAR     71  68  90 W8        29.95S
$$

RIZALL-080600-
RHODE ISLAND

CITY           SKY/WX    TMP DP  RH WIND       PRES   REMARKS
PROVIDENCE     CLOUDY    74  70  87 SW7       29.95F
NEWPORT        CLOUDY    71  69  93 VRB5      29.96F FOG
BLOCK ISLAND   CLOUDY    70  68  94 SW16      29.97F
SMITHFIELD     PTCLDY    72  64  78 SW3       29.95F
WESTERLY       PTCLDY    71  69  93 SW5       29.97F
$$

CTZALL-080600-
CONNECTICUT

CITY           SKY/WX    TMP DP  RH WIND       PRES   REMARKS
BRADLEY INTL   MOCLDY    70  68  93 SW3       29.93F
HARTFORD       CLEAR     72  70  93 S3        29.94S
BRIDGEPORT     CLEAR     75  71  87 W3        29.95F
DANBURY        CLEAR     70  67  90 CALM      29.97F FOG
GROTON         PTCLDY    69  67  93 CALM      29.95F FOG
NEW HAVEN      CLEAR     73  71  93 SW5       29.95F
CHESTER        NOT AVBL
MERIDEN        CLOUDY    70  67  90 CALM      29.95F
WILLIMANTIC    CLOUDY    73  70  90 CALM      29.96S
OXFORD         CLEAR     72  64  78 CALM      29.98F
$$

MEZ002-015-021-024-NHZ003-005-008-011-012-014-VTZ005-008-080600-
NORTHERN NEW ENGLAND

CITY           SKY/WX    TMP DP  RH WIND       PRES   REMARKS
PORTLAND ME    PTCLDY    70  68  93 S9        29.88F
BANGOR ME      CLOUDY    65  65 100 S14       29.88F FOG
CONCORD NH     PTCLDY    71  69  93 SE3       29.90F
MANCHESTER NH  MOCLDY    74  70  87 S3        29.89S
NASHUA NH      PTCLDY    73  71  93 CALM      29.91F
PORTSMOUTH NH  MOCLDY    73  69  86 S5        29.88F
JAFFREY NH     CLOUDY    71  69  93 SW6       29.94F
KEENE NH       CLOUDY    72  66  83 S6        29.92F
BURLINGTON VT  MOCLDY    76  67  73 S15G24    29.81S
MT. WASHINGTON FOG       55  55 100 W46G54      N/A  VSB 0
$$

NYZ052-076-080600-
EASTERN NEW YORK

CITY           SKY/WX    TMP DP  RH WIND       PRES   REMARKS
ALBANY         PTCLDY    74  70  87 S9        29.89F
NEW YORK CITY  PTCLDY    81  68  64 SW10      29.95F
$$

ANZALL-080600-
MARINE OBSERVATIONS

STATION/POSITION TIME  TEMP    WIND        PRES    VSBY  WAVE
                       AIR SEA DIR/SP/G                  HT/PER
                 (UTC) (F)     (DEG/KT/KT) (MB)    (MI)  (FT/S)
BOSTON BUOY      0450   68 63  190/ 10/ 12 1013.2F         1/ 9
BUZZARDS BAY     0400          230/ 11/ 12 1015.9R
NANTUCKET SOUND  0450   70 68  220/ 16/ 17 1014.6F         1/ 3
MASS BAY-STELLWA 0404   69 65  190/ 12/ 14 1012.4F  1 7/8  2/ 4
ISLE OF SHOALS   0500   73     200/ 19/ 20 1011.6F
S OF BLOCK IS    0408      68                N/A           4/ 4
$$

......................KEY.........................
  SKY/WX - SKY CONDITION/PRESENT WEATHER
  TMP    - TEMPERATURE IN FAHRENHEIT
  DWPT   - DEWPOINT IN FAHRENHEIT
  RH     - RELATIVE HUMIDITY IN PERCENT
  WIND   - DIRECTION AND SPEED IN MPH
  PRES   - MEAN SEA LEVEL PRESSURE IN INCHES OF HG
  WCI    - WIND CHILL INDEX
  VSB    - VISIBILITY IN MILES
  HX     - HEAT INDEX
  TC     - TEMPERATURE IN CELSIUS
  VRB    - VARIABLE WIND DIRECTION
  N/A    - NOT AVAILABLE


USA.gov is the U.S. government's official web portal to all federal, state and local government web resources and services.